Change the Weather History Date:

Saturday, May 10, 2014

  Actual Average (KSZT) Record (KSZT)
Temperature  
Mean Temperature 47 °F -  
Max Temperature 55 °F 65 °F 85 °F (1949)
Min Temperature 39 °F 39 °F 27 °F (1916)
Degree Days  
Heating Degree Days 18    
Moisture  
Dew Point 39 °F    
Average Humidity 76    
Maximum Humidity 100    
Minimum Humidity 51    
Precipitation  
Precipitation 0.12 in - - ()
Sea Level Pressure  
Sea Level Pressure 29.98 in    
Wind  
Wind Speed 4 mph (SSW)    
Max Wind Speed 13 mph    
Max Gust Speed 26 mph    
Visibility 10 miles    
Events Rain    
Averages and records for this station are not official NWS values.
T = Trace of Precipitation, MM = Missing Value Source: NWS Daily Summary

Daily Weather History Graph

Daily Weather History Graph

Search for Another Location

Airport or City:

Trip Planner

Search our weather history database for the weather conditions in past years. The results will help you decide how hot, cold, wet, or windy it might be!

Date:

Astronomy

May. 10, 2014 Rise Set
Actual Time 5:10 AM PDT 8:13 PM PDT
Civil Twilight 4:33 AM PDT 8:50 PM PDT
Nautical Twilight 3:45 AM PDT 9:38 PM PDT
Astronomical Twilight 2:46 AM PDT 10:38 PM PDT
Moon 3:53 PM PDT (5/10) 3:08 AM PDT (5/10)
Length of Visible Light 16h 16m
Length of Day
15h 02m
Waxing Gibbous, 83% of the Moon is Illuminated
May 10
Waxing Gibbous
May 14
Full
May 21
Last Quarter
May 28
New
Jun 5
First Quarter

Hourly Weather History & Observations

Time (PDT) Temp. Windchill Dew Point Humidity Pressure Visibility Wind Dir Wind Speed Gust Speed Precip Events Conditions
12:15 AM 44.6 °F - 39.2 °F 81% 29.88 in 10.0 mi Calm Calm - N/A   Overcast
12:35 AM 44.6 °F 43.1 °F 39.2 °F 81% 29.89 in 10.0 mi SSW 3.5 mph - N/A   Overcast
12:55 AM 44.6 °F 42.2 °F 39.2 °F 81% 29.89 in 10.0 mi SSW 4.6 mph - N/A   Overcast
1:15 AM 42.8 °F - 39.2 °F 87% 29.89 in 10.0 mi Calm Calm - N/A Rain Light Rain
1:35 AM 41.0 °F - 39.2 °F 93% 29.89 in 10.0 mi Calm Calm - 0.01 in Rain Light Rain
1:55 AM 41.0 °F 38.0 °F 39.2 °F 93% 29.89 in 10.0 mi SSW 4.6 mph - 0.01 in   Overcast
2:15 AM 41.0 °F 37.1 °F 39.2 °F 93% 29.89 in 10.0 mi South 5.8 mph - N/A   Overcast
2:55 AM 41.0 °F - 39.2 °F 93% 29.89 in 10.0 mi Calm Calm - N/A   Overcast
3:15 AM 41.0 °F - 39.2 °F 93% 29.89 in 10.0 mi Calm Calm - N/A Rain Light Rain
3:35 AM 41.0 °F - 39.2 °F 93% 29.90 in 10.0 mi Calm Calm - N/A   Overcast
3:55 AM 41.0 °F - 39.2 °F 93% 29.90 in 10.0 mi Calm Calm - N/A   Overcast
4:15 AM 41.0 °F - 39.2 °F 93% 29.90 in 10.0 mi Calm Calm - N/A   Overcast
4:35 AM 41.0 °F - 39.2 °F 93% 29.91 in 10.0 mi Calm Calm - N/A   Overcast
4:55 AM 41.0 °F - 39.2 °F 93% 29.91 in 10.0 mi Calm Calm - N/A   Overcast
5:10 AM 41.0 °F 39.0 °F 39.2 °F 93% 29.91 in 10.0 mi South 3.5 mph - N/A   Overcast
5:35 AM 41.0 °F - 39.2 °F 93% 29.92 in 10.0 mi Calm Calm - N/A   Overcast
5:55 AM 41.0 °F - 37.4 °F 87% 29.93 in 10.0 mi Calm Calm - N/A   Overcast
6:15 AM 41.0 °F - 39.2 °F 93% 29.93 in 10.0 mi Calm Calm - N/A   Mostly Cloudy
6:35 AM 39.2 °F - 39.2 °F 100% 29.94 in 10.0 mi Calm Calm - N/A   Mostly Cloudy
6:55 AM 41.0 °F - 39.2 °F 93% 29.95 in 10.0 mi Calm Calm - N/A   Overcast
7:15 AM 41.0 °F 38.0 °F 39.2 °F 93% 29.95 in 10.0 mi SSW 4.6 mph - N/A   Overcast
7:35 AM 42.8 °F 39.3 °F 39.2 °F 87% 29.96 in 10.0 mi South 5.8 mph - N/A   Overcast
7:55 AM 44.6 °F - 39.2 °F 81% 29.96 in 10.0 mi Calm Calm - N/A   Mostly Cloudy
8:15 AM 46.4 °F 41.5 °F 39.2 °F 76% 29.96 in 10.0 mi SW 10.4 mph - N/A   Partly Cloudy
8:35 AM 46.4 °F 43.5 °F 37.4 °F 71% 29.96 in 10.0 mi SSW 5.8 mph - N/A   Partly Cloudy
8:55 AM 48.2 °F - 37.4 °F 66% 29.96 in 10.0 mi South 4.6 mph - N/A   Mostly Cloudy
9:15 AM 48.2 °F - 37.4 °F 66% 29.96 in 10.0 mi South 9.2 mph - N/A   Mostly Cloudy
9:35 AM 48.2 °F - 37.4 °F 66% 29.96 in 10.0 mi SSW 10.4 mph 17.3 mph N/A   Mostly Cloudy
9:55 AM 48.2 °F - 35.6 °F 62% 29.96 in 10.0 mi SW 9.2 mph - N/A   Mostly Cloudy
10:15 AM 50.0 °F - 35.6 °F 58% 29.96 in 10.0 mi SSW 9.2 mph - N/A   Mostly Cloudy
10:35 AM 50.0 °F - 35.6 °F 58% 29.97 in 10.0 mi South 5.8 mph - N/A   Mostly Cloudy
10:55 AM 50.0 °F - 35.6 °F 58% 29.96 in 10.0 mi SW 8.1 mph - N/A   Scattered Clouds
11:15 AM 51.8 °F - 37.4 °F 58% 29.97 in 10.0 mi SSW 10.4 mph - N/A   Mostly Cloudy
11:35 AM 53.6 °F - 35.6 °F 51% 29.97 in 10.0 mi South 10.4 mph 17.3 mph N/A   Mostly Cloudy
11:55 AM 50.0 °F - 37.4 °F 62% 29.97 in 10.0 mi SSW 10.4 mph 18.4 mph N/A   Overcast
12:15 PM 50.0 °F - 37.4 °F 62% 29.97 in 10.0 mi South 5.8 mph - N/A   Mostly Cloudy
12:35 PM 53.6 °F - 37.4 °F 54% 29.97 in 10.0 mi South 9.2 mph - N/A   Overcast
12:55 PM 53.6 °F - 37.4 °F 54% 29.97 in 10.0 mi SSW 6.9 mph - N/A   Overcast
1:15 PM 51.8 °F - 35.6 °F 54% 29.97 in 10.0 mi SW 8.1 mph - N/A   Overcast
1:35 PM 50.0 °F - 37.4 °F 62% 29.98 in 8.0 mi WSW 12.7 mph - N/A   Mostly Cloudy
1:55 PM 46.4 °F 42.9 °F 41.0 °F 81% 29.98 in 5.0 mi South 6.9 mph - 0.03 in Rain Light Rain
2:15 PM 51.8 °F - 39.2 °F 62% 29.97 in 10.0 mi SSE 5.8 mph - N/A   Clear
2:35 PM 53.6 °F - 39.2 °F 58% 29.97 in 10.0 mi South 9.2 mph - N/A   Mostly Cloudy
2:55 PM 55.4 °F - 37.4 °F 51% 29.97 in 10.0 mi South 10.4 mph - N/A   Overcast
3:15 PM 53.6 °F - 37.4 °F 54% 29.98 in 10.0 mi SSW 5.8 mph 16.1 mph N/A   Overcast
3:35 PM 53.6 °F - 37.4 °F 54% 29.98 in 10.0 mi SSW 5.8 mph - N/A   Overcast
3:55 PM 53.6 °F - 37.4 °F 54% 29.98 in 10.0 mi South 9.2 mph 17.3 mph N/A   Mostly Cloudy
4:15 PM 55.4 °F - 37.4 °F 51% 29.99 in 10.0 mi SSW 6.9 mph - N/A   Scattered Clouds
4:35 PM 55.4 °F - 37.4 °F 51% 29.98 in 10.0 mi SSW 6.9 mph - N/A   Mostly Cloudy
4:55 PM 53.6 °F - 37.4 °F 54% 29.99 in 10.0 mi SSW 5.8 mph - N/A   Scattered Clouds
5:15 PM 53.6 °F - 37.4 °F 54% 29.99 in 10.0 mi South 6.9 mph - N/A   Mostly Cloudy
5:35 PM 53.6 °F - 37.4 °F 54% 30.00 in 10.0 mi SW 4.6 mph - N/A   Overcast
5:55 PM 51.8 °F - 41.0 °F 67% 30.01 in 8.0 mi North 9.2 mph - N/A Rain Light Rain
6:15 PM 48.2 °F - 44.6 °F 87% 30.02 in 5.0 mi Calm Calm - 0.01 in Rain Light Rain
6:35 PM 48.2 °F - 44.6 °F 87% 30.02 in 10.0 mi Calm Calm - 0.01 in   Scattered Clouds
6:55 PM 48.2 °F - 44.6 °F 87% 30.03 in 10.0 mi Calm Calm - 0.01 in   Partly Cloudy
7:15 PM 48.2 °F - 44.6 °F 87% 30.04 in 10.0 mi SE 3.5 mph - N/A   Clear
7:35 PM 46.4 °F - 42.8 °F 87% 30.04 in 10.0 mi Calm Calm - 0.01 in   Mostly Cloudy
7:55 PM 46.4 °F - 42.8 °F 87% 30.05 in 10.0 mi Calm Calm - 0.01 in   Overcast
8:15 PM 48.2 °F - 41.0 °F 76% 30.06 in 10.0 mi Calm Calm - N/A   Overcast
8:35 PM 46.4 °F - 41.0 °F 81% 30.07 in 10.0 mi Calm Calm - N/A   Overcast
8:55 PM 48.2 °F - 41.0 °F 76% 30.08 in 10.0 mi Calm Calm - N/A   Overcast
9:15 PM 46.4 °F 44.3 °F 39.2 °F 76% 30.09 in 10.0 mi SSW 4.6 mph - N/A   Overcast
9:35 PM 46.4 °F - 41.0 °F 81% 30.10 in 9.0 mi Calm Calm - N/A Rain Light Rain
9:55 PM 46.4 °F - 41.0 °F 81% 30.10 in 10.0 mi Calm Calm - 0.01 in Rain Light Rain
10:15 PM 44.6 °F - 42.8 °F 93% 30.10 in 5.0 mi Calm Calm - 0.02 in Rain Light Rain
10:35 PM 44.6 °F - 44.6 °F 100% 30.11 in 10.0 mi Calm Calm - 0.02 in   Overcast
10:55 PM 44.6 °F - 42.8 °F 93% 30.12 in 10.0 mi Calm Calm - 0.03 in   Overcast
11:15 PM 44.6 °F 38.8 °F 39.2 °F 81% 30.14 in 5.0 mi NNE 11.5 mph 18.4 mph 0.01 in Rain Light Rain
11:35 PM 41.0 °F 34.3 °F 35.6 °F 81% 30.16 in 10.0 mi North 11.5 mph 26.5 mph 0.02 in Rain Light Rain
11:55 PM 41.0 °F 34.7 °F 35.6 °F 81% 30.18 in 10.0 mi North 10.4 mph - 0.02 in   Overcast